Regional Weather Roundup
Issued by NWS

Home | Current Version | Previous Version | Graphics & Text | Print | Product List | Glossary Off
Versions: 1 2 3 4 5 6 7 8 9 10 11 12 13 14 15 16 17 18 19 20 21 22 23 24 25 26 27 28 29 30 31 32 33 34 35 36 37 38 39 40 41 42 43 44 45 46 47 48 49 50

000
ASUS43 KTOP 271008
RWRKS

WEATHER ROUNDUP FOR KANSAS
NATIONAL WEATHER SERVICE GOODLAND KS
400 AM CST THU NOV 27 2014

NOTE:  "FAIR" INDICATES FEW OR NO CLOUDS BELOW 12,000 FEET WITH NO
SIGNIFICANT WEATHER AND/OR OBSTRUCTIONS TO VISIBILITY.

KSZ001>006-013>018-027>032-041>047-271100-
NORTHWEST KANSAS

CITY           SKY/WX    TMP DP  RH WIND       PRES   REMARKS
GOODLAND       CLEAR     25  19  78 S14       30.31F WCI  13
HAYS           MOCLDY    25  10  54 SE7       30.43F
HILL CITY      CLEAR     22  15  75 E5        30.42S
RUSSELL        CLEAR     21  17  84 SE6       30.44S
$$

KSZ061>065-074>080-084>089-271100-
SOUTHWEST KANSAS

CITY           SKY/WX    TMP DP  RH WIND       PRES   REMARKS
DODGE CITY     CLEAR     21  15  78 S7        30.43R
ELKHART          N/A     27  14  58 S8          N/A
GARDEN CITY    CLEAR     21  16  81 S7        30.40S
GREAT BEND     CLEAR     23  12  63 SE6       30.47S
LIBERAL        CLEAR     21  12  68 SW6       30.43S
PRATT          CLEAR     23  18  80 CALM      30.46F
$$

KSZ066>073-081>083-090>101-271100-
SOUTHEAST KANSAS

CITY           SKY/WX    TMP DP  RH WIND       PRES   REMARKS
CHANUTE        CLEAR     22  19  89 N5        30.48R
COFFEYVILLE    CLEAR     25  20  81 CALM      30.49R
HUTCHINSON     CLEAR     23  16  74 W3        30.48R
MEDICINE LODGE   N/A     23  19  85 CALM      30.48S
NEWTON         CLEAR     21  12  68 CALM      30.47S
PARSONS        CLEAR     24  21  88 NE3       30.48S
WICHITA INTL   PTCLDY    22  16  78 W5        30.49R
WICHITA JABRA  CLEAR     22  18  85 W6        30.48R
WICHITA MCCONL CLEAR     25  20  80 W3        30.49R
WINFIELD       CLEAR     23  19  85 NW6       30.51R
$$

KSZ007>012-019>026-033>040-048>060-102>105-271100-
NORTHEAST KANSAS

CITY           SKY/WX    TMP DP  RH WIND       PRES   REMARKS
CONCORDIA      PTCLDY    19  14  81 CALM      30.46R
EMPORIA        CLEAR     19  17  92 NE8       30.44F
LAWRENCE       MOCLDY    21  17  84 N7        30.49F
MANHATTAN      CLEAR     16  14  92 N5        30.47F
MARYSVILLE     CLEAR     14  12  92 N7        30.48S
OLATHE IND     MOCLDY    24  19  81 NW8       30.47F
OLATHE EXE     CLOUDY    26  20  77 NW7       30.46S
SALINA         PTCLDY    22  15  75 NW3       30.49R
TOPEKA BILLARD MOCLDY    24  18  77 N5        30.49S
TOPEKA FORBES  CLEAR     21  16  81 N5        30.46F
$$



USA.gov is the U.S. government's official web portal to all federal, state and local government web resources and services.